User: anonymous   Login
Location: Killarney Provincial Park Observatory
(46.0124°N, 81.4000°W)
Time: 04:34:47
(UTC-04:00)
Language:

Iridium 22 - Orbit

View from above orbital plane
View from above orbital plane
View from above satellite
View from above satellite

Ground track
Ground track

The orbit data is extracted from the following two-line orbital elements,

1 24907U 97043E   16236.55926641  .00000085  00000-0  23422-4 0  9991
2 24907  86.3980  20.4924 0002086  93.2765 266.8669 14.34215611995168
Epoch (UTC): 23 August 2016 13:25:20
Eccentricity: 0.0002086
inclination: 86.3980°
perigee height: 776 km
apogee height: 779 km
right ascension of ascending node: 20.4924°
argument of perigee: 93.2765°
revolutions per day: 14.34215611
mean anomaly at epoch: 266.8669°
orbit number at epoch: 99516

The dashed part of the orbit path shows where the satellite is in the earth's shadow,  

DLR